Regional Weather Roundup
Issued by NWS

Home | Current Version | Previous Version | Graphics & Text | Print | Product List | Glossary On
Versions: 1 2 3 4 5 6 7 8 9 10 11 12 13 14 15 16 17 18 19 20 21 22 23 24 25 26 27 28 29 30 31 32 33 34 35 36 37 38 39 40 41 42 43 44 45 46 47 48 49 50
000
ASUS43 KLSX 281807
RWRMO

WEATHER SUMMARY FOR MISSOURI
NATIONAL WEATHER SERVICE SPRINGFIELD MO
100 PM CDT SAT MAY 28 2016

NOTE: "FAIR" INDICATES FEW OR NO CLOUDS BELOW 12,000 FEET WITH NO
       SIGNIFICANT WEATHER AND/OR OBSTRUCTIONS TO VISIBILITY.
       CURRENT SKY AND/OR WEATHER CONDITIONS ARE NOT AVAILABLE FOR
       CHILLICOTHE AND FARMINGTON.

MOZ001>031-035>038-043-044-053-054-281900-
...NORTHERN AND WESTERN MISSOURI...

CITY           SKY/WX    TMP DP  RH WIND       PRES   REMARKS
KANSAS CTY INT PTSUNNY   72  62  71 W10       29.87R
6HR MIN TEMP:  61; 6HR MAX TEMP:  72;

KANSAS C DTWN  MOSUNNY   73  59  61 SW10      29.86S
6HR MIN TEMP:  62; 6HR MAX TEMP:  74;

LEE`S SUMMIT   PTSUNNY   71  60  68 SW12      29.89R
6HR MIN TEMP:  60; 6HR MAX TEMP:  72;

ST JOSEPH      MOSUNNY   73  60  63 W15G21    29.85R
6HR MIN TEMP:  60; 6HR MAX TEMP:  73;

CHILLICOTHE      N/A     75  63  66 SW12G18   29.86R
6HR MIN TEMP:  60; 6HR MAX TEMP:  75;

KIRKSVILLE     LGT RAIN  74  64  71 S14G22    29.87R
6HR MIN TEMP:  64; 6HR MAX TEMP:  76; 6HR PCP: TRACE;


$$
MOZ066>068-077>081-088>096-101>105-281900-
...SOUTHWEST MISSOURI...

CITY           SKY/WX    TMP DP  RH WIND       PRES   REMARKS
SPRINGFIELD    MOSUNNY   77  64  64 W13       29.95S
6HR MIN TEMP:  63; 6HR MAX TEMP:  78;

JOPLIN         PTSUNNY   76  64  66 S13G22    29.95R
6HR MIN TEMP:  64; 6HR MAX TEMP:  77;

BRANSON        MOSUNNY   77  64  65 CALM      29.99R

$$
MOZ032>034-039>042-045>050-055>058-069>072-281900-
...CENTRAL MISSOURI...

CITY           SKY/WX    TMP DP  RH WIND       PRES   REMARKS
COLUMBIA       MOSUNNY   81  65  58 S20G26    29.89S
6HR MIN TEMP:  66; 6HR MAX TEMP:  81;

JEFFERSON CITY MOSUNNY   80  64  58 SW15G25   29.89S
6HR MIN TEMP:  66; 6HR MAX TEMP:  80;

ROLLA          MOSUNNY   78  67  68 SW9       29.93S
6HR MIN TEMP:  64; 6HR MAX TEMP:  78;

SEDALIA        MOSUNNY   78  64  61 SW18G24   29.91R
6HR MIN TEMP:  66; 6HR MAX TEMP:  78;

WHITEMAN AFB   MOSUNNY   75  65  69 SW18G24   29.88S
WARRENSBURG    PTSUNNY   73  63  68 SW13G18   29.89R

$$
MOZ051-052-059>065-281900-
...EAST CENTRAL MISSOURI...

CITY           SKY/WX    TMP DP  RH WIND       PRES   REMARKS
ST LOUIS INTL  PTSUNNY   83  65  54 S12       29.93F
6HR MIN TEMP:  69; 6HR MAX TEMP:  83;

SPIRIT OF STL  PTSUNNY   82  67  60 S9G16     29.91F
6HR MIN TEMP:  68; 6HR MAX TEMP:  82;

ST CHARLES     SUNNY     82  69  64 S12       29.91F
6HR MIN TEMP:  68; 6HR MAX TEMP:  82;


$$
MOZ072>076-082>087-097>100-106>115-281900-
...SOUTH CENTRAL AND SOUTHEAST MISSOURI...

CITY           SKY/WX    TMP DP  RH WIND       PRES   REMARKS
CAPE GIRARDEAU CLOUDY    79  69  71 S12       30.00S
6HR MIN TEMP:  69; 6HR MAX TEMP:  79; 6HR PCP: TRACE;

FARMINGTON     PTSUNNY   79  68  69 S13       29.99R
6HR MIN TEMP:  66; 6HR MAX TEMP:  79;

POPLAR BLUFF   PTSUNNY   80  68  66 S8        29.99S
6HR MIN TEMP:  68; 6HR MAX TEMP:  80;

WEST PLAINS    SUNNY     78  64  61 S10       30.00R
6HR MIN TEMP:  66; 6HR MAX TEMP:  78;


$$



USA.gov is the U.S. government's official web portal to all federal, state and local government web resources and services.